| time (UTC) | temp F | wind direction | speed MPH | gust MPH | rain 1hr in | rain 24hr in | rain mn in | humidity % | barometer mb |
| 20260903135934 | 53 | 317 | 0.0 | 3.0 | 0.00 | 0.05 | 0.05 | 76 | 1020.5 |
| 20260903134934 | 53 | 317 | 2.0 | 8.0 | 0.00 | 0.05 | 0.05 | 77 | 1020.4 |
| 20260903134434 | 53 | 303 | 2.0 | 8.0 | 0.00 | 0.05 | 0.05 | 77 | 1020.4 |
| 20260903133942 | 53 | 279 | 1.0 | 4.0 | 0.00 | 0.05 | 0.05 | 77 | 1020.3 |
| 20260903133935 | 53 | 280 | 1.0 | 4.0 | 0.00 | 0.05 | 0.05 | 77 | 1020.4 |
| 20260903132932 | 53 | 278 | 0.0 | 4.0 | 0.00 | 0.05 | 0.05 | 78 | 1020.4 |
| 20260903132430 | 53 | 275 | 0.0 | 1.0 | 0.00 | 0.05 | 0.05 | 78 | 1020.4 |
| 20260903131930 | 53 | 275 | 0.0 | 1.0 | 0.00 | 0.05 | 0.05 | 78 | 1020.4 |
| 20260903131436 | 53 | 274 | 0.0 | 2.0 | 0.00 | 0.05 | 0.05 | 78 | 1020.5 |
| 20260903131430 | 53 | 275 | 0.0 | 2.0 | 0.00 | 0.05 | 0.05 | 78 | 1020.5 |
| 20260903130430 | 53 | 274 | 0.0 | 4.0 | 0.00 | 0.05 | 0.05 | 78 | 1020.4 |
| 20260903125929 | 53 | 274 | 1.0 | 6.0 | 0.00 | 0.05 | 0.05 | 78 | 1020.5 |
| 20260903125429 | 53 | 274 | 1.0 | 6.0 | 0.00 | 0.05 | 0.05 | 79 | 1020.5 |
| 20260903124930 | 53 | 240 | 0.0 | 4.0 | 0.00 | 0.05 | 0.05 | 79 | 1020.5 |
| 20260903124429 | 53 | 239 | 1.0 | 4.0 | 0.00 | 0.05 | 0.05 | 79 | 1020.4 |
| 20260903123931 | 53 | 231 | 0.0 | 2.0 | 0.00 | 0.05 | 0.05 | 79 | 1020.4 |
| 20260903123926 | 53 | 231 | 0.0 | 4.0 | 0.00 | 0.05 | 0.05 | 79 | 1020.4 |
| 20260903122926 | 53 | 230 | 0.0 | 1.0 | 0.00 | 0.05 | 0.05 | 79 | 1020.4 |
| 20260903122426 | 53 | 230 | 0.0 | 1.0 | 0.00 | 0.05 | 0.05 | 79 | 1020.4 |
| 20260903121927 | 53 | 229 | 0.0 | 1.0 | 0.00 | 0.05 | 0.05 | 79 | 1020.4 |
| 20260903121426 | 54 | 229 | 0.0 | 1.0 | 0.00 | 0.05 | 0.05 | 79 | 1020.4 |
| 20260903120926 | 54 | 229 | 0.0 | 1.0 | 0.00 | 0.05 | 0.05 | 79 | 1020.4 |
| 20260903120426 | 54 | 229 | 0.0 | 0.0 | 0.00 | 0.05 | 0.05 | 79 | 1020.3 |
| 20260903115932 | 54 | 229 | 0.0 | 3.0 | 0.00 | 0.05 | 0.05 | 79 | 1020.1 |
| 20260903115926 | 54 | 229 | 0.0 | 1.0 | 0.00 | 0.05 | 0.05 | 79 | 1020.2 |
| 20260903114930 | 54 | 218 | 0.0 | 0.0 | 0.00 | 0.05 | 0.05 | 79 | 1020.1 |
| 20260903114926 | 54 | 229 | 0.0 | 3.0 | 0.00 | 0.05 | 0.05 | 79 | 1020.2 |
| 20260903113926 | 54 | 217 | 0.0 | 0.0 | 0.00 | 0.05 | 0.05 | 78 | 1020.1 |
| 20260903113426 | 54 | 217 | 0.0 | 0.0 | 0.00 | 0.05 | 0.05 | 78 | 1020.1 |
| 20260903112923 | 54 | 216 | 0.0 | 0.0 | 0.00 | 0.05 | 0.05 | 78 | 1020.0 |
| 20260903112424 | 55 | 216 | 0.0 | 1.0 | 0.00 | 0.05 | 0.05 | 78 | 1019.9 |
| 20260903111926 | 55 | 216 | 0.0 | 5.0 | 0.00 | 0.05 | 0.05 | 78 | 1019.9 |
| 20260903111426 | 55 | 210 | 0.0 | 5.0 | 0.00 | 0.05 | 0.05 | 79 | 1019.9 |
| 20260903110931 | 55 | 254 | 0.0 | 5.0 | 0.00 | 0.05 | 0.05 | 79 | 1019.5 |
| 20260903110924 | 55 | 226 | 0.0 | 4.0 | 0.00 | 0.05 | 0.05 | 79 | 1019.7 |
| 20260903110424 | 55 | 234 | 0.0 | 5.0 | 0.00 | 0.05 | 0.05 | 79 | 1019.5 |
| 20260903105426 | 55 | 234 | 1.0 | 5.0 | 0.00 | 0.05 | 0.05 | 80 | 1019.5 |
| 20260903104924 | 56 | 209 | 1.0 | 7.0 | 0.00 | 0.05 | 0.05 | 79 | 1019.5 |
| 20260903104426 | 56 | 198 | 2.0 | 8.0 | 0.00 | 0.05 | 0.05 | 79 | 1019.4 |
| 20260903103923 | 56 | 261 | 3.0 | 9.0 | 0.00 | 0.05 | 0.05 | 78 | 1019.4 |
| 20260903103424 | 56 | 193 | 3.0 | 10.0 | 0.00 | 0.05 | 0.05 | 78 | 1019.2 |
| 20260903102931 | 56 | 237 | 2.0 | 10.0 | 0.00 | 0.05 | 0.05 | 79 | 1019.1 |
| 20260903102926 | 56 | 262 | 3.0 | 10.0 | 0.00 | 0.05 | 0.05 | 79 | 1019.2 |
| 20260903101924 | 56 | 251 | 2.0 | 9.0 | 0.00 | 0.05 | 0.05 | 79 | 1019.2 |
| 20260903101424 | 55 | 220 | 2.0 | 9.0 | 0.00 | 0.05 | 0.05 | 79 | 1019.1 |
| 20260903100924 | 55 | 247 | 1.0 | 9.0 | 0.00 | 0.05 | 0.05 | 80 | 1019.1 |
| 20260903100426 | 55 | 236 | 0.0 | 6.0 | 0.00 | 0.05 | 0.05 | 81 | 1018.9 |
| 20260903095926 | 55 | 231 | 0.0 | 2.0 | 0.00 | 0.05 | 0.05 | 81 | 1018.9 |
| 20260903095429 | 56 | 225 | 0.0 | 0.0 | 0.00 | 0.05 | 0.05 | 80 | 1018.7 |
| 20260903095425 | 56 | 226 | 0.0 | 1.0 | 0.00 | 0.05 | 0.05 | 80 | 1018.8 |
| 20260903094425 | 56 | 225 | 0.0 | 0.0 | 0.00 | 0.05 | 0.05 | 80 | 1018.7 |
| 20260903093924 | 56 | 225 | 0.0 | 0.0 | 0.00 | 0.05 | 0.05 | 80 | 1018.6 |
| 20260903093422 | 56 | 225 | 0.0 | 0.0 | 0.00 | 0.05 | 0.05 | 80 | 1018.5 |
| 20260903092923 | 56 | 225 | 0.0 | 0.0 | 0.00 | 0.05 | 0.05 | 80 | 1018.4 |
| 20260903092422 | 56 | 225 | 0.0 | 1.0 | 0.00 | 0.05 | 0.05 | 80 | 1018.3 |
| 20260903091928 | 56 | 225 | 0.0 | 0.0 | 0.00 | 0.05 | 0.05 | 78 | 1018.3 |
| 20260903091922 | 56 | 225 | 0.0 | 1.0 | 0.00 | 0.05 | 0.05 | 79 | 1018.3 |
| 20260903090924 | 57 | 225 | 0.0 | 0.0 | 0.00 | 0.05 | 0.05 | 78 | 1018.2 |
| 20260903090422 | 57 | 225 | 0.0 | 0.0 | 0.00 | 0.05 | 0.05 | 78 | 1018.1 |
| 20260903085925 | 57 | 225 | 0.0 | 0.0 | 0.00 | 0.05 | 0.05 | 77 | 1018.0 |
| 20260903085425 | 57 | 225 | 0.0 | 1.0 | 0.00 | 0.05 | 0.05 | 77 | 1017.9 |
| 20260903084923 | 57 | 225 | 0.0 | 2.0 | 0.00 | 0.05 | 0.05 | 76 | 1017.8 |
| 20260903084424 | 57 | 226 | 0.0 | 3.0 | 0.00 | 0.05 | 0.05 | 76 | 1017.7 |
| 20260903083924 | 57 | 227 | 1.0 | 8.0 | 0.00 | 0.05 | 0.05 | 76 | 1017.6 |
| 20260903083422 | 57 | 204 | 1.0 | 8.0 | 0.00 | 0.05 | 0.05 | 76 | 1017.6 |
| 20260903082924 | 57 | 211 | 1.0 | 5.0 | 0.00 | 0.05 | 0.05 | 76 | 1017.4 |
| 20260903082427 | 58 | 204 | 1.0 | 6.0 | 0.00 | 0.05 | 0.05 | 75 | 1017.3 |
| 20260903082421 | 57 | 204 | 1.0 | 5.0 | 0.00 | 0.05 | 0.05 | 76 | 1017.3 |
| 20260903082047 | 58 | 206 | 2.0 | 6.0 | 0.00 | 0.05 | 0.05 | 75 | 1017.3 |
| 20260903081548 | 58 | 243 | 1.0 | 5.0 | 0.00 | 0.05 | 0.05 | 75 | 1017.2 |
| 20260903080420 | 58 | 226 | 1.0 | 5.0 | 0.00 | 0.05 | 0.05 | 75 | 1017.1 |
| 20260903075920 | 58 | 224 | 1.0 | 4.0 | 0.00 | 0.05 | 0.05 | 74 | 1017.0 |
| 20260903075420 | 58 | 213 | 1.0 | 4.0 | 0.00 | 0.05 | 0.05 | 74 | 1017.0 |
| 20260903075050 | 58 | 242 | 2.0 | 9.0 | 0.00 | 0.05 | 0.05 | 73 | 1016.8 |
| 20260903074925 | 58 | 214 | 2.0 | 9.0 | 0.00 | 0.05 | 0.05 | 73 | 1016.8 |
| 20260903074921 | 58 | 219 | 1.0 | 5.0 | 0.00 | 0.05 | 0.05 | 74 | 1016.9 |
| 20260903073421 | 59 | 247 | 2.0 | 8.0 | 0.00 | 0.05 | 0.05 | 73 | 1016.8 |
| 20260903072923 | 59 | 193 | 2.0 | 9.0 | 0.00 | 0.05 | 0.05 | 73 | 1016.7 |
| 20260903072421 | 59 | 222 | 2.0 | 9.0 | 0.00 | 0.05 | 0.05 | 72 | 1016.6 |
| 20260903071919 | 59 | 208 | 2.0 | 6.0 | 0.00 | 0.05 | 0.05 | 72 | 1016.4 |
| 20260903071418 | 59 | 219 | 2.0 | 7.0 | 0.00 | 0.05 | 0.05 | 71 | 1016.3 |
| 20260903070917 | 59 | 236 | 3.0 | 9.0 | 0.00 | 0.05 | 0.05 | 70 | 1016.2 |
| 20260903070417 | 59 | 224 | 2.0 | 9.0 | 0.00 | 0.05 | 0.05 | 70 | 1016.1 |
| 20260903065918 | 60 | 204 | 2.0 | 10.0 | 0.00 | 0.05 | 0.05 | 70 | 1016.1 |
| 20260903065425 | 60 | 211 | 2.0 | 8.0 | 0.00 | 0.05 | 0.05 | 69 | 1015.9 |
| 20260903065419 | 60 | 205 | 3.0 | 10.0 | 0.00 | 0.05 | 0.05 | 70 | 1016.0 |
| 20260903064419 | 60 | 235 | 2.0 | 7.0 | 0.00 | 0.05 | 0.05 | 69 | 1015.9 |
| 20260903063918 | 60 | 235 | 2.0 | 7.0 | 0.00 | 0.05 | 0.05 | 70 | 1015.8 |
| 20260903063417 | 61 | 249 | 2.0 | 5.0 | 0.00 | 0.05 | 0.05 | 69 | 1015.8 |
| 20260903062916 | 61 | 209 | 2.0 | 6.0 | 0.00 | 0.05 | 0.05 | 69 | 1015.6 |
| 20260903062415 | 61 | 204 | 3.0 | 8.0 | 0.00 | 0.05 | 0.05 | 69 | 1015.5 |
| 20260903061921 | 61 | 189 | 3.0 | 9.0 | 0.00 | 0.05 | 0.05 | 66 | 1015.4 |
| 20260903061916 | 61 | 212 | 3.0 | 9.0 | 0.00 | 0.05 | 0.05 | 68 | 1015.5 |
| 20260903060917 | 62 | 199 | 3.0 | 9.0 | 0.00 | 0.05 | 0.05 | 66 | 1015.3 |
| 20260903060416 | 62 | 221 | 2.0 | 8.0 | 0.00 | 0.05 | 0.05 | 65 | 1015.3 |
| 20260903055922 | 63 | 210 | 2.0 | 5.0 | 0.00 | 0.05 | 0.05 | 64 | 1015.1 |
| 20260903055916 | 63 | 193 | 2.0 | 8.0 | 0.00 | 0.05 | 0.05 | 65 | 1015.1 |
| 20260903055544 | 63 | 299 | 2.0 | 6.0 | 0.00 | 0.05 | 0.05 | 65 | 1015.1 |
| 20260903054417 | 62 | 271 | 2.0 | 9.0 | 0.00 | 0.05 | 0.05 | 65 | 1015.0 |
| 20260903053925 | 62 | 212 | 1.0 | 8.0 | 0.00 | 0.05 | 0.05 | 63 | 1014.9 |
| 20260903053918 | 62 | 199 | 2.0 | 9.0 | 0.00 | 0.05 | 0.05 | 65 | 1015.0 |
| 20260903052415 | 63 | 180 | 1.0 | 6.0 | 0.00 | 0.05 | 0.05 | 63 | 1014.8 |
| 20260903051915 | 63 | 223 | 1.0 | 6.0 | 0.00 | 0.05 | 0.05 | 65 | 1014.8 |
| 20260903051415 | 63 | 226 | 1.0 | 6.0 | 0.00 | 0.05 | 0.05 | 65 | 1014.8 |
| 20260903050915 | 63 | 219 | 2.0 | 7.0 | 0.00 | 0.05 | 0.05 | 65 | 1014.7 |
| 20260903050414 | 62 | 212 | 2.0 | 8.0 | 0.00 | 0.05 | 0.05 | 64 | 1014.7 |
| 20260903045922 | 62 | 231 | 3.0 | 13.0 | 0.00 | 0.05 | 0.05 | 64 | 1014.6 |
| 20260903045415 | 62 | 245 | 2.0 | 13.0 | 0.00 | 0.05 | 0.05 | 64 | 1014.7 |
| 20260903044915 | 62 | 243 | 2.0 | 6.0 | 0.00 | 0.05 | 0.05 | 65 | 1014.6 |
| 20260903044414 | 62 | 243 | 2.0 | 8.0 | 0.00 | 0.05 | 0.05 | 68 | 1014.6 |
| 20260903043912 | 62 | 250 | 3.0 | 11.0 | 0.00 | 0.05 | 0.05 | 69 | 1014.5 |
| 20260903043411 | 61 | 204 | 3.0 | 11.0 | 0.00 | 0.05 | 0.05 | 69 | 1014.5 |
| 20260903042912 | 61 | 214 | 3.0 | 11.0 | 0.00 | 0.05 | 0.05 | 69 | 1014.5 |
| 20260903042411 | 61 | 212 | 3.0 | 11.0 | 0.00 | 0.05 | 0.05 | 69 | 1014.4 |
| 20260903041912 | 61 | 208 | 4.0 | 11.0 | 0.00 | 0.05 | 0.05 | 68 | 1014.3 |
| 20260903041412 | 61 | 238 | 4.0 | 11.0 | 0.00 | 0.05 | 0.05 | 68 | 1014.3 |
| 20260903040911 | 61 | 189 | 4.0 | 13.0 | 0.00 | 0.05 | 0.05 | 68 | 1014.2 |
| 20260903040412 | 61 | 224 | 3.0 | 13.0 | 0.00 | 0.05 | 0.05 | 67 | 1014.1 |
| 20260903035912 | 61 | 233 | 2.0 | 10.0 | 0.00 | 0.05 | 0.05 | 68 | 1014.1 |
| 20260903035417 | 60 | 243 | 3.0 | 13.0 | 0.00 | 0.05 | 0.05 | 71 | 1014.0 |
| 20260903035411 | 60 | 227 | 3.0 | 13.0 | 0.00 | 0.05 | 0.05 | 70 | 1014.0 |
| 20260903034413 | 60 | 254 | 2.0 | 11.0 | 0.00 | 0.05 | 0.05 | 75 | 1014.0 |
| 20260903033911 | 59 | 264 | 1.0 | 7.0 | 0.00 | 0.05 | 0.05 | 78 | 1014.1 |
| 20260903033418 | 60 | 253 | 2.0 | 9.0 | 0.00 | 0.05 | 0.05 | 77 | 1014.0 |
| 20260903033412 | 59 | 211 | 1.0 | 5.0 | 0.00 | 0.05 | 0.05 | 77 | 1014.0 |
| 20260903032411 | 60 | 254 | 2.0 | 9.0 | 0.00 | 0.05 | 0.05 | 78 | 1013.9 |
| 20260903031913 | 59 | 185 | 2.0 | 7.0 | 0.00 | 0.05 | 0.05 | 79 | 1014.0 |
| 20260903031411 | 59 | 202 | 1.0 | 7.0 | 0.00 | 0.05 | 0.05 | 81 | 1013.9 |
| 20260903030911 | 59 | 249 | 1.0 | 6.0 | 0.00 | 0.05 | 0.05 | 84 | 1013.9 |
| 20260903030413 | 58 | 303 | 1.0 | 7.0 | 0.00 | 0.05 | 0.05 | 83 | 1013.9 |
| 20260903025912 | 58 | 302 | 2.0 | 8.0 | 0.00 | 0.05 | 0.05 | 82 | 1013.8 |
| 20260903025417 | 58 | 251 | 2.0 | 9.0 | 0.00 | 0.05 | 0.05 | 84 | 1013.8 |
| 20260903025411 | 58 | 284 | 2.0 | 9.0 | 0.00 | 0.05 | 0.05 | 82 | 1013.9 |
| 20260903024412 | 58 | 349 | 2.0 | 10.0 | 0.00 | 0.05 | 0.05 | 87 | 1013.9 |
| 20260903023913 | 57 | 294 | 1.0 | 10.0 | 0.00 | 0.05 | 0.05 | 87 | 1013.9 |
| 20260903023413 | 56 | 307 | 1.0 | 8.0 | 0.01 | 0.05 | 0.05 | 88 | 1013.8 |
| 20260903022911 | 56 | 283 | 1.0 | 8.0 | 0.01 | 0.05 | 0.05 | 88 | 1013.9 |
| 20260903022411 | 55 | 272 | 2.0 | 16.0 | 0.03 | 0.05 | 0.05 | 88 | 1013.9 |
| 20260903021911 | 55 | 254 | 2.0 | 16.0 | 0.03 | 0.05 | 0.05 | 88 | 1014.0 |
| 20260903021411 | 55 | 318 | 2.0 | 10.0 | 0.03 | 0.05 | 0.05 | 88 | 1014.0 |
| 20260903020912 | 55 | 241 | 1.0 | 11.0 | 0.03 | 0.05 | 0.05 | 89 | 1014.0 |
| 20260903020410 | 55 | 237 | 1.0 | 11.0 | 0.03 | 0.05 | 0.05 | 88 | 1013.8 |
| 20260903015909 | 55 | 281 | 1.0 | 11.0 | 0.03 | 0.05 | 0.05 | 88 | 1013.8 |
| 20260903015417 | 55 | 193 | 3.0 | 12.0 | 0.03 | 0.05 | 0.05 | 87 | 1013.8 |
| 20260903015410 | 55 | 277 | 2.0 | 11.0 | 0.03 | 0.05 | 0.05 | 88 | 1013.8 |
| 20260903014410 | 55 | 230 | 4.0 | 12.0 | 0.03 | 0.05 | 0.05 | 86 | 1013.8 |
| 20260903013910 | 56 | 228 | 5.0 | 12.0 | 0.03 | 0.05 | 0.05 | 83 | 1013.7 |
| 20260903013411 | 57 | 206 | 6.0 | 22.0 | 0.02 | 0.04 | 0.04 | 80 | 1013.7 |
| 20260903012908 | 60 | 273 | 6.0 | 22.0 | 0.03 | 0.04 | 0.04 | 74 | 1013.7 |
| 20260903012406 | 62 | 165 | 7.0 | 16.0 | 0.01 | 0.02 | 0.02 | 67 | 1013.1 |
| 20260903011906 | 62 | 299 | 8.0 | 16.0 | 0.01 | 0.02 | 0.02 | 67 | 1012.8 |
| 20260903011405 | 62 | 292 | 8.0 | 19.0 | 0.01 | 0.02 | 0.02 | 68 | 1012.9 |
| 20260903010906 | 61 | 287 | 9.0 | 19.0 | 0.01 | 0.02 | 0.02 | 69 | 1013.0 |
| 20260903010405 | 61 | 287 | 7.0 | 14.0 | 0.01 | 0.02 | 0.02 | 72 | 1013.1 |
| 20260903005903 | 60 | 314 | 6.0 | 15.0 | 0.02 | 0.02 | 0.02 | 73 | 1013.0 |
| 20260903005404 | 60 | 299 | 6.0 | 15.0 | 0.02 | 0.02 | 0.02 | 74 | 1013.0 |
| 20260903004906 | 59 | 307 | 5.0 | 17.0 | 0.02 | 0.02 | 0.02 | 76 | 1013.0 |
| 20260903004900 | 59 | 323 | 6.0 | 17.0 | 0.02 | 0.02 | 0.02 | 75 | 1013.1 |
| 20260903003901 | 58 | 290 | 6.0 | 15.0 | 0.02 | 0.02 | 0.02 | 79 | 1012.9 |
| 20260903003403 | 58 | 300 | 5.0 | 15.0 | 0.02 | 0.02 | 0.02 | 80 | 1012.9 |
| 20260903002901 | 58 | 302 | 2.0 | 13.0 | 0.01 | 0.01 | 0.01 | 82 | 1012.9 |
| 20260903002401 | 58 | 297 | 1.0 | 7.0 | 0.01 | 0.01 | 0.01 | 81 | 1012.9 |
| 20260903001908 | 58 | 310 | 3.0 | 15.0 | 0.01 | 0.01 | 0.01 | 78 | 1012.9 |
| 20260903001902 | 58 | 300 | 1.0 | 7.0 | 0.01 | 0.01 | 0.01 | 79 | 1012.9 |
| 20260903000900 | 58 | 316 | 6.0 | 15.0 | 0.01 | 0.01 | 0.01 | 75 | 1012.9 |
| 20260903000403 | 59 | 308 | 6.0 | 13.0 | 0.01 | 0.01 | 0.01 | 73 | 1013.1 |
| 20260902235901 | 59 | 316 | 6.0 | 13.0 | 0.00 | 0.00 | 0.00 | 70 | 1012.7 |
| 20260902235402 | 59 | 303 | 7.0 | 13.0 | 0.00 | 0.00 | 0.00 | 71 | 1012.6 |
| 20260902234905 | 58 | 316 | 7.0 | 23.0 | 0.00 | 0.00 | 0.00 | 71 | 1012.6 |
| 20260902234859 | 58 | 298 | 7.0 | 23.0 | 0.00 | 0.00 | 0.00 | 71 | 1012.7 |
| 20260902233859 | 58 | 328 | 6.0 | 13.0 | 0.00 | 0.00 | 0.00 | 70 | 1012.5 |
| 20260902233358 | 58 | 356 | 5.0 | 12.0 | 0.00 | 0.00 | 0.00 | 70 | 1012.5 |
| 20260902232900 | 57 | 337 | 5.0 | 12.0 | 0.00 | 0.00 | 0.00 | 70 | 1012.4 |
| 20260902232359 | 57 | 1 | 4.0 | 9.0 | 0.00 | 0.00 | 0.00 | 70 | 1012.2 |
| 20260902231900 | 57 | 351 | 4.0 | 12.0 | 0.00 | 0.00 | 0.00 | 70 | 1012.2 |
| 20260902231359 | 57 | 333 | 5.0 | 15.0 | 0.00 | 0.00 | 0.00 | 70 | 1012.2 |
| 20260902230857 | 56 | 350 | 5.0 | 15.0 | 0.00 | 0.00 | 0.00 | 70 | 1012.2 |
| 20260902230357 | 56 | 341 | 5.0 | 14.0 | 0.00 | 0.00 | 0.00 | 70 | 1012.2 |
| 20260902225857 | 56 | 351 | 5.0 | 14.0 | 0.00 | 0.00 | 0.00 | 70 | 1012.1 |
| 20260902225358 | 56 | 2 | 6.0 | 17.0 | 0.00 | 0.00 | 0.00 | 70 | 1012.1 |
| 20260902224858 | 56 | 351 | 6.0 | 17.0 | 0.00 | 0.00 | 0.00 | 70 | 1011.9 |
| 20260902224357 | 56 | 358 | 5.0 | 16.0 | 0.00 | 0.00 | 0.00 | 70 | 1011.9 |
| 20260902223905 | 56 | 335 | 5.0 | 11.0 | 0.00 | 0.00 | 0.00 | 70 | 1011.9 |
| 20260902223857 | 56 | 4 | 5.0 | 11.0 | 0.00 | 0.00 | 0.00 | 71 | 1011.9 |
| 20260902222900 | 56 | 333 | 5.0 | 11.0 | 0.00 | 0.00 | 0.00 | 70 | 1011.9 |
| 20260902222357 | 56 | 356 | 5.0 | 12.0 | 0.00 | 0.00 | 0.00 | 70 | 1011.8 |
| 20260902221856 | 56 | 353 | 5.0 | 12.0 | 0.00 | 0.00 | 0.00 | 70 | 1011.8 |
| 20260902221354 | 56 | 13 | 4.0 | 10.0 | 0.00 | 0.00 | 0.00 | 70 | 1011.8 |
| 20260902220856 | 56 | 340 | 4.0 | 8.0 | 0.00 | 0.00 | 0.00 | 71 | 1011.9 |
| 20260902220354 | 55 | 347 | 3.0 | 8.0 | 0.00 | 0.00 | 0.00 | 71 | 1011.8 |
| 20260902215854 | 55 | 351 | 3.0 | 6.0 | 0.00 | 0.00 | 0.00 | 71 | 1011.8 |
| 20260902215355 | 55 | 345 | 3.0 | 7.0 | 0.00 | 0.00 | 0.00 | 71 | 1011.8 |
| 20260902214855 | 55 | 349 | 3.0 | 7.0 | 0.00 | 0.00 | 0.00 | 71 | 1011.8 |
| 20260902214355 | 55 | 359 | 2.0 | 7.0 | 0.00 | 0.00 | 0.00 | 72 | 1011.7 |
| 20260902213853 | 54 | 333 | 2.0 | 5.0 | 0.00 | 0.00 | 0.00 | 72 | 1011.7 |
| 20260902213351 | 54 | 333 | 2.0 | 5.0 | 0.00 | 0.00 | 0.00 | 73 | 1011.6 |
| 20260902212850 | 54 | 332 | 2.0 | 6.0 | 0.00 | 0.00 | 0.00 | 73 | 1011.5 |
| 20260902212350 | 53 | 331 | 1.0 | 6.0 | 0.00 | 0.00 | 0.00 | 73 | 1011.3 |
| 20260902211851 | 53 | 329 | 1.0 | 5.0 | 0.00 | 0.00 | 0.00 | 74 | 1011.2 |
| 20260902211348 | 53 | 329 | 1.0 | 5.0 | 0.00 | 0.00 | 0.00 | 73 | 1011.3 |
| 20260902210848 | 52 | 329 | 1.0 | 5.0 | 0.00 | 0.00 | 0.00 | 73 | 1011.2 |
| 20260902210348 | 52 | 329 | 1.0 | 5.0 | 0.00 | 0.00 | 0.00 | 73 | 1011.1 |
| 20260902205849 | 52 | 329 | 1.0 | 5.0 | 0.00 | 0.00 | 0.00 | 72 | 1011.0 |
| 20260902205347 | 52 | 329 | 2.0 | 5.0 | 0.00 | 0.00 | 0.00 | 72 | 1010.9 |
| 20260902204848 | 53 | 329 | 2.0 | 5.0 | 0.00 | 0.00 | 0.00 | 71 | 1010.7 |
| 20260902204346 | 53 | 328 | 2.0 | 5.0 | 0.00 | 0.00 | 0.00 | 70 | 1010.7 |
| 20260902203846 | 54 | 328 | 3.0 | 11.0 | 0.00 | 0.00 | 0.00 | 69 | 1010.7 |
| 20260902203344 | 54 | 320 | 4.0 | 11.0 | 0.00 | 0.00 | 0.00 | 69 | 1010.6 |
| 20260902202844 | 54 | 342 | 4.0 | 9.0 | 0.00 | 0.00 | 0.00 | 69 | 1010.6 |
| 20260902202345 | 54 | 335 | 4.0 | 10.0 | 0.00 | 0.00 | 0.00 | 69 | 1010.6 |
| 20260902201845 | 54 | 321 | 4.0 | 10.0 | 0.00 | 0.00 | 0.00 | 69 | 1010.6 |
| 20260902201350 | 54 | 326 | 4.0 | 10.0 | 0.00 | 0.00 | 0.00 | 69 | 1010.6 |
| 20260902201344 | 54 | 333 | 4.0 | 9.0 | 0.00 | 0.00 | 0.00 | 69 | 1010.6 |
| 20260902200344 | 53 | 331 | 4.0 | 10.0 | 0.00 | 0.00 | 0.00 | 70 | 1010.7 |
| 20260902195844 | 53 | 351 | 4.0 | 8.0 | 0.00 | 0.00 | 0.00 | 70 | 1010.7 |
| 20260902195344 | 53 | 343 | 3.0 | 7.0 | 0.00 | 0.00 | 0.00 | 70 | 1010.7 |
| 20260902194844 | 53 | 347 | 3.0 | 9.0 | 0.00 | 0.00 | 0.00 | 70 | 1010.7 |
| 20260902194350 | 52 | 335 | 2.0 | 7.0 | 0.00 | 0.00 | 0.00 | 70 | 1010.6 |
| 20260902194344 | 53 | 345 | 3.0 | 9.0 | 0.00 | 0.00 | 0.00 | 70 | 1010.6 |
| 20260902193346 | 52 | 334 | 3.0 | 7.0 | 0.00 | 0.00 | 0.00 | 70 | 1010.7 |
| 20260902192845 | 52 | 327 | 4.0 | 7.0 | 0.00 | 0.00 | 0.00 | 70 | 1010.7 |
| 20260902192344 | 52 | 339 | 3.0 | 8.0 | 0.00 | 0.00 | 0.00 | 70 | 1010.7 |
| 20260902191849 | 52 | 347 | 2.0 | 5.0 | 0.00 | 0.00 | 0.00 | 70 | 1010.6 |
| 20260902191843 | 52 | 350 | 2.0 | 8.0 | 0.00 | 0.00 | 0.00 | 70 | 1010.5 |
| 20260902190845 | 53 | 347 | 2.0 | 4.0 | 0.00 | 0.00 | 0.00 | 69 | 1010.5 |
| 20260902190344 | 53 | 347 | 2.0 | 4.0 | 0.00 | 0.00 | 0.00 | 69 | 1010.3 |
| 20260902185853 | 53 | 350 | 4.0 | 7.0 | 0.00 | 0.00 | 0.00 | 68 | 1010.3 |
| 20260902185844 | 53 | 347 | 3.0 | 7.0 | 0.00 | 0.00 | 0.00 | 68 | 1010.3 |
| 20260902185346 | 53 | 347 | 4.0 | 7.0 | 0.00 | 0.00 | 0.00 | 68 | 1010.3 |
| 20260902185013 | 53 | 351 | 3.0 | 5.0 | 0.00 | 0.00 | 0.00 | 68 | 1010.2 |
| 20260902183844 | 54 | 351 | 3.0 | 6.0 | 0.00 | 0.00 | 0.00 | 67 | 1010.1 |
| 20260902183344 | 54 | 351 | 3.0 | 7.0 | 0.00 | 0.00 | 0.00 | 67 | 1010.2 |
| 20260902182844 | 54 | 345 | 3.0 | 7.0 | 0.00 | 0.00 | 0.00 | 66 | 1010.2 |
| 20260902182342 | 54 | 345 | 3.0 | 6.0 | 0.00 | 0.00 | 0.00 | 66 | 1010.1 |
| 20260902181843 | 55 | 349 | 4.0 | 10.0 | 0.00 | 0.00 | 0.00 | 65 | 1010.0 |
| 20260902181349 | 55 | 316 | 4.0 | 9.0 | 0.00 | 0.00 | 0.00 | 64 | 1010.0 |
| 20260902181342 | 55 | 333 | 4.0 | 10.0 | 0.00 | 0.00 | 0.00 | 64 | 1009.9 |
| 20260902180839 | 55 | 335 | 4.0 | 10.0 | 0.00 | 0.00 | 0.00 | 64 | 1009.9 |
| 20260902180511 | 55 | 4 | 5.0 | 16.0 | 0.00 | 0.00 | 0.00 | 64 | 1010.0 |
| 20260902175338 | 55 | 297 | 5.0 | 16.0 | 0.00 | 0.00 | 0.00 | 64 | 1010.0 |
| 20260902174837 | 55 | 0 | 4.0 | 9.0 | 0.00 | 0.00 | 0.00 | 65 | 1010.1 |
| 20260902174343 | 54 | 318 | 4.0 | 11.0 | 0.00 | 0.00 | 0.00 | 66 | 1010.2 |
| 20260902174337 | 54 | 317 | 4.0 | 11.0 | 0.00 | 0.00 | 0.00 | 65 | 1010.2 |
| 20260902173341 | 54 | 339 | 3.0 | 7.0 | 0.00 | 0.00 | 0.00 | 67 | 1010.3 |
| 20260902173335 | 54 | 339 | 3.0 | 7.0 | 0.00 | 0.00 | 0.00 | 67 | 1010.1 |
| 20260902172834 | 54 | 333 | 3.0 | 9.0 | 0.00 | 0.00 | 0.00 | 67 | 1010.3 |
| 20260902171834 | 54 | 348 | 3.0 | 9.0 | 0.00 | 0.00 | 0.00 | 67 | 1010.4 |
| 20260902171341 | 54 | 326 | 3.0 | 7.0 | 0.00 | 0.00 | 0.00 | 67 | 1010.5 |
| 20260902171335 | 54 | 351 | 3.0 | 8.0 | 0.00 | 0.00 | 0.00 | 67 | 1010.5 |
| 20260902170341 | 54 | 316 | 2.0 | 4.0 | 0.00 | 0.00 | 0.00 | 67 | 1010.6 |
| 20260902170335 | 54 | 318 | 2.0 | 7.0 | 0.00 | 0.00 | 0.00 | 67 | 1010.5 |
| 20260902165332 | 55 | 316 | 2.0 | 7.0 | 0.00 | 0.00 | 0.00 | 66 | 1010.6 |
| 20260902164834 | 55 | 314 | 3.0 | 8.0 | 0.00 | 0.00 | 0.00 | 65 | 1010.6 |
| 20260902164332 | 55 | 316 | 4.0 | 8.0 | 0.00 | 0.00 | 0.00 | 65 | 1010.7 |
| 20260902163832 | 55 | 344 | 3.0 | 8.0 | 0.00 | 0.00 | 0.00 | 65 | 1010.8 |
| 20260902163331 | 55 | 351 | 3.0 | 7.0 | 0.00 | 0.00 | 0.00 | 66 | 1010.9 |
| 20260902162832 | 55 | 322 | 3.0 | 7.0 | 0.00 | 0.00 | 0.00 | 66 | 1010.9 |
| 20260902162333 | 55 | 331 | 4.0 | 8.0 | 0.00 | 0.00 | 0.00 | 66 | 1011.0 |
| 20260902161832 | 55 | 339 | 3.0 | 8.0 | 0.00 | 0.00 | 0.00 | 66 | 1011.1 |
| 20260902161332 | 55 | 309 | 4.0 | 9.0 | 0.00 | 0.00 | 0.00 | 66 | 1011.1 |
| 20260902160832 | 55 | 307 | 4.0 | 10.0 | 0.00 | 0.00 | 0.00 | 66 | 1011.2 |
| 20260902160332 | 55 | 357 | 4.0 | 12.0 | 0.00 | 0.00 | 0.00 | 66 | 1011.2 |
| 20260902155830 | 55 | 289 | 5.0 | 12.0 | 0.00 | 0.00 | 0.00 | 67 | 1011.2 |
| 20260902155330 | 55 | 292 | 5.0 | 10.0 | 0.00 | 0.00 | 0.00 | 67 | 1011.3 |
| 20260902154829 | 54 | 300 | 4.0 | 10.0 | 0.00 | 0.00 | 0.00 | 68 | 1011.2 |
| 20260902154331 | 54 | 305 | 4.0 | 10.0 | 0.00 | 0.00 | 0.00 | 69 | 1011.1 |
| 20260902153829 | 54 | 319 | 4.0 | 8.0 | 0.00 | 0.00 | 0.00 | 69 | 1011.2 |
| 20260902153331 | 54 | 298 | 4.0 | 8.0 | 0.00 | 0.00 | 0.00 | 69 | 1011.3 |
| 20260902152836 | 54 | 324 | 3.0 | 8.0 | 0.00 | 0.00 | 0.00 | 69 | 1011.4 |
| 20260902152830 | 54 | 333 | 3.0 | 8.0 | 0.00 | 0.00 | 0.00 | 69 | 1011.3 |
| 20260902151831 | 54 | 323 | 2.0 | 7.0 | 0.00 | 0.00 | 0.00 | 69 | 1011.4 |
| 20260902151327 | 54 | 322 | 2.0 | 7.0 | 0.00 | 0.00 | 0.00 | 69 | 1011.3 |
| 20260902150829 | 54 | 327 | 2.0 | 7.0 | 0.00 | 0.00 | 0.00 | 69 | 1011.3 |
| 20260902150328 | 54 | 318 | 3.0 | 5.0 | 0.00 | 0.00 | 0.00 | 69 | 1011.3 |
| 20260902145827 | 54 | 320 | 2.0 | 6.0 | 0.00 | 0.00 | 0.00 | 69 | 1011.3 |
| 20260902145328 | 54 | 343 | 2.0 | 6.0 | 0.00 | 0.00 | 0.00 | 69 | 1011.3 |
| 20260902144833 | 54 | 341 | 3.0 | 9.0 | 0.00 | 0.00 | 0.00 | 69 | 1011.3 |
| 20260902144827 | 54 | 335 | 3.0 | 9.0 | 0.00 | 0.00 | 0.00 | 69 | 1011.4 |
| 20260902143829 | 54 | 343 | 2.0 | 8.0 | 0.00 | 0.00 | 0.00 | 68 | 1011.3 |
| 20260902143335 | 54 | 327 | 3.0 | 6.0 | 0.00 | 0.00 | 0.00 | 68 | 1011.3 |
| 20260902143329 | 54 | 328 | 2.0 | 6.0 | 0.00 | 0.00 | 0.00 | 68 | 1011.2 |
| 20260902142951 | 54 | 312 | 2.0 | 5.0 | 0.00 | 0.00 | 0.00 | 68 | 1011.4 |
| 20260902141823 | 54 | 314 | 2.0 | 8.0 | 0.00 | 0.00 | 0.00 | 68 | 1011.5 |
| 20260902141323 | 54 | 314 | 3.0 | 8.0 | 0.00 | 0.00 | 0.00 | 69 | 1011.5 |
| 20260902140822 | 54 | 333 | 2.0 | 6.0 | 0.00 | 0.00 | 0.00 | 69 | 1011.5 |
| 20260902140323 | 54 | 335 | 1.0 | 5.0 | 0.00 | 0.00 | 0.00 | 69 | 1011.5 |